Regional & State Weather Roundups


772 
ASUS43 KIWX 110910
RWRIWX
KIWX WEATHER ROUNDUP
NATIONAL WEATHER SERVICE NORTHERN INDIANA
400 AM EST MON DEC 11 2017
NOTE: "FAIR" INDICATES FEW OR NO CLOUDS BELOW 12,000 FEET WITH NO
SIGNIFICANT WEATHER AND/OR OBSTRUCTIONS TO VISIBILITY. 
* THESE STATIONS ARE NOT UNDER NWS QUALITY CONTROL. THEY ALSO MAY NOT 
  REPORT WEATHER SUCH AS PRECIPITATION OR FOG. 
INZ001>027-111000-
NORTHERN INDIANA
  
CITY           SKY/WX    TMP DP  RH WIND       PRES   REMARKS
GARY*          CLOUDY    24  19  83 CALM      30.04F                  
VALPARAISO     CLEAR     24  18  77 CALM      30.04F                  
MICHIGAN CITY* CLOUDY    28  21  74 SW3       30.04F                  
LAPORTE*       CLOUDY    26  20  79 SW3       30.04F                  
KNOX*          CLEAR     23  19  86 W5        30.04F WCI  17          
SOUTH BEND     CLOUDY    26  21  81 SW5       30.03F WCI  20          
GOSHEN         CLOUDY    27  20  75 SW3       30.03F                  
MONTICELLO*    CLOUDY    20  16  84 CALM      30.05F                  
LOGANSPORT*    CLOUDY    21  18  86 SW3       30.06F                  
ROCHESTER*     CLOUDY    27  23  86 SW5       30.05F WCI  21          
WARSAW*        CLOUDY    27  23  86 CALM      30.04S                  
AUBURN*        CLOUDY    30  23  74 CALM      30.04F                  
FORT WAYNE     PTCLDY    24  20  84 SW3       30.05S                  
HUNTINGTON*    PTCLDY    25  21  87 SW3       30.06R                  
PERU/GRISSOM   CLOUDY    19  17  94 SW6       30.05S WCI  10          
MARION*        CLEAR     20  18  90 CALM      30.06F FOG              
$$
INZ028>050-111000-
CENTRAL INDIANA
  
CITY           SKY/WX    TMP DP  RH WIND       PRES   REMARKS
LAFAYETTE      CLOUDY    19  17  92 CALM      30.07F                  
KOKOMO*        CLEAR     21  17  84 W6        30.07S WCI  13          
MUNCIE*        CLEAR     24  19  81 SW3       30.06S                  
INDIANAPOLIS   CLEAR     23  19  85 W3        30.08F                  
$$
MIZ043>046-050>051-056>058-064>065-071>073-077>080-111000-
SOUTHWEST LOWER MICHIGAN
  
CITY           SKY/WX    TMP DP  RH WIND       PRES   REMARKS
BATTLE CREEK   CLOUDY    27  22  81 CALM      30.02S                  
BENTON HARBOR  CLOUDY    30  20  66 W3        30.02S                  
COLDWATER*     CLOUDY    27  23  85 CALM      30.02S                  
HILLSDALE*     CLOUDY    27  21  80 CALM      30.00S                  
HOLLAND        CLOUDY    26  19  74 E6        30.02F WCI  19          
GRAND RAPIDS   CLOUDY    25  21  85 SE3       30.01F                  
KALAMAZOO      CLOUDY    28  22  78 E3        30.01F                  
STURGIS*       CLOUDY    26  23  88 CALM      30.01F                  
THREE RIVERS*  CLOUDY    29  23  78 CALM      30.02F                  
$$
OHZ001>008-015>018-024>025-111000-
NORTHWEST OHIO
  
CITY           SKY/WX    TMP DP  RH WIND       PRES   REMARKS
WAUSEON*         N/A     27  25  93 W6        30.04R WCI  20          
DEFIANCE       CLOUDY    27  21  78 CALM      30.05S                  
FINDLAY        CLEAR     21  15  78 SW3       30.04R                  
TOLEDO EXPRESS CLOUDY    24  22  91 W5        30.04R WCI  18          
TOLEDO METCALF CLEAR     22  17  81 CALM      30.05R                  
LIMA           CLOUDY    28  23  81 NW5       30.04R WCI  23          
$$
AND FOR LAKE MICHIGAN COASTAL AND OPEN LAKE BUOY OBSERVATIONS
  
STATION/POSITION TEMP    WIND        PRES    VSBY  WAVE
                 AIR SEA DIR/SP/G                  HT/PER
                 (F)     (DEG/KT/KT) (MB)    (MI)  (FT/S)
CALUMET HARBOR    28     130/  3/  3 1016.4F
MICHIGAN CITY     30     270/  6/  8   N/A
BURNS HARBOR      29     240/  8/  9 1017.9F
SAINT JOSEPH      32     290/  6/  8 1017.6
$$
&&